Vorticity
5 4 4 5 5 6 5 5 5 6 6 5 6 7 10 8 6 6 8 8 6 7 7 7 7 3 4 7 8 6 8 9 9 8 9 10 9 9 8 7 5 7 5 3 5 5 4
6 6 5 6 5 4 4 1 2 4 12 13 13 12 9 8 7 5 5 6 5 6 7 7 7 3 1 4 8 9 7 6 5 6 6 4 6 7 8 8 4 7 6 4 5 2 4
6 6 5 5 6 5 2 1 7 14 8 7 8 10 9 9 9 10 10 8 6 7 9 9 6 6 6 7 9 5 4 6 10 13 13 10 7 7 6 7 9 10 8 4 5 3 2
5 6 6 5 3 4 8 -2 16 5 6 11 13 10 11 9 12 11 8 8 7 9 7 5 6 4 5 9 9 7 7 5 6 6 10 11 11 11 10 10 11 11 7 4 5 4 4
4 5 5 4 6 5 8 10 8 4 8 16 17 17 9 10 12 9 8 8 9 7 5 5 4 7 11 6 6 7 9 12 14 14 13 10 10 12 13 11 11 8 6 5 5 5 9
2 2 2 4 4 1 4 18 3 5 11 12 15 16 5 9 7 7 9 10 5 4 4 6 7 10 10 11 13 11 11 10 11 15 17 15 14 12 10 9 8 6 6 7 5 10 8
5 8 7 4 3 2 7 10 4 8 12 16 11 10 7 8 9 15 5 4 6 9 6 10 14 10 11 11 16 17 23 18 13 11 10 11 10 8 8 8 8 8 9 7 8 7 6
7 5 10 7 4 4 12 6 5 10 11 14 17 13 8 12 5 3 8 7 5 7 11 12 9 9 11 11 6 5 7 15 12 9 10 11 12 12 11 9 8 8 9 6 6 5 3
4 5 7 7 9 7 12 5 10 9 6 8 11 12 8 4 8 6 4 5 6 8 13 8 6 7 7 4 4 2 4 5 7 7 7 5 4 5 6 7 8 6 7 3 2 6 2
5 7 6 9 7 9 11 7 11 8 7 7 7 9 10 5 2 5 6 4 7 7 8 5 9 6 6 7 5 4 6 7 5 7 6 5 7 4 0 5 7 6 3 5 5 4 4
9 8 8 6 5 9 9 9 10 9 11 11 7 1 3 4 5 8 4 5 10 12 9 10 9 9 11 12 12 11 9 7 4 3 5 7 4 6 4 5 6 6 4 3 5 8 9
7 7 7 14 9 9 10 11 8 5 4 3 3 6 6 6 9 5 6 7 11 12 8 7 6 4 7 8 6 6 8 9 9 8 5 7 6 4 5 6 6 7 8 7 8 5 12
5 6 6 3 10 11 12 8 6 5 5 5 4 4 5 5 5 6 6 8 10 8 9 3 5 5 3 6 10 8 8 11 11 12 10 8 8 9 7 10 8 7 7 8 5 11 9
5 6 6 7 11 13 9 7 5 4 3 3 3 3 5 6 4 5 5 9 7 5 4 3 6 2 2 -2 4 1 6 7 10 12 12 13 7 9 9 10 6 5 6 4 7 8 7
6 4 5 9 8 10 7 5 3 3 2 3 4 3 5 7 4 4 5 12 4 1 3 4 5 4 4 4 3 1 6 7 9 6 6 11 7 9 7 6 7 7 9 6 8 5 6
7 6 8 7 8 6 5 3 2 3 4 5 5 5 5 8 4 4 5 10 3 2 3 4 3 3 4 5 -1 4 13 13 7 8 7 14 11 6 6 10 11 10 9 6 8 5 6
6 9 8 10 8 6 3 3 3 5 6 6 6 7 8 5 5 5 9 5 2 3 2 3 0 2 5 2 1 4 9 6 6 6 9 15 12 12 11 8 8 7 9 4 8 7 5
10 10 7 9 9 8 8 8 9 9 8 6 7 7 4 8 9 9 3 3 3 3 3 3 2 1 3 -2 5 15 13 8 5 3 14 8 9 13 11 9 7 6 10 13 9 9 6
6 8 9 9 10 9 7 5 5 6 9 9 8 10 8 6 3 3 4 3 4 4 2 4 3 3 -1 2 9 14 17 8 6 6 13 7 11 13 13 6 8 8 10 6 8 5 9
4 6 4 4 4 4 5 6 5 5 5 4 3 4 3 4 4 3 3 4 3 1 2 4 1 0 6 15 10 9 8 7 11 13 12 8 11 13 12 5 3 7 6 9 3 6 -6
8 3 4 4 4 3 3 4 3 3 2 1 1 2 3 0 2 4 3 2 2 3 3 2 -2 -1 9 14 14 9 15 14 15 15 13 8 7 7 16 10 7 12 10 8 2 4 10
2 3 7 2 4 4 3 3 2 2 0 1 1 2 2 2 3 3 3 2 4 3 4 5 -6 6 8 13 13 12 11 9 8 9 4 6 5 3 10 9 4 9 11 -16 17 6 10
1 3 5 6 6 2 2 2 2 1 3 5 6 3 3 2 3 3 4 4 4 4 3 1 0 14 8 15 10 8 5 1 1 5 6 8 4 2 9 4 3 7 9 5 9 15 8
3 2 3 7 10 7 6 5 4 3 1 0 0 6 5 3 6 7 6 3 -1 3 -3 2 6 19 13 11 5 6 5 5 4 8 6 4 6 6 4 8 6 10 9 6 17 -2 10
4 6 4 5 4 12 10 7 4 5 3 2 2 7 9 6 -1 0 4 2 2 0 5 9 19 24 18 7 5 3 3 3 6 3 12 10 5 6 9 5 5 14 20 4 9 10 6
4 4 3 3 9 9 8 8 7 8 10 10 8 7 2 -2 -3 -1 -2 9 29 23 20 18 18 11 6 6 5 5 7 4 6 6 7 5 7 8 9 7 -2 20 15 8 1 6 7
10 10 10 8 8 7 6 5 6 8 -1 -2 -2 3 8 -0 1 5 14 17 15 13 9 6 6 5 5 5 6 5 5 12 8 4 8 7 7 13 6 2 2 15 7 11 -0 9 12
-1 5 5 2 3 -2 5 6 1 -9 6 5 -3 -1 12 7 16 23 14 13 9 9 8 6 7 9 10 8 9 10 2 2 5 4 7 6 10 12 5 9 13 17 10 6 5 14 10
7 10 6 -10 8 -1 -3 9 7 4 11 -1 15 13 8 16 7 7 2 5 5 4 5 8 10 11 11 10 -2 3 5 0 9 7 11 9 10 4 14 12 13 7 7 7 11 9 7
Height
5856 5858 5861 5863 5865 5866 5867 5868 5868 5868 5867 5866 5866 5865 5865 5865 5865 5864 5864 5864 5864 5863 5863 5862 5862 5861 5860 5859 5857 5855 5853 5852 5850 5849 5848 5847 5846 5845 5844 5843 5843 5841 5841 5840 5838 5837 5836
5856 5858 5860 5863 5864 5865 5866 5867 5867 5866 5865 5864 5863 5863 5863 5863 5863 5863 5863 5863 5863 5862 5862 5861 5860 5859 5858 5857 5855 5852 5851 5849 5847 5846 5845 5843 5842 5841 5840 5839 5838 5837 5836 5836 5834 5833 5832
5856 5858 5860 5862 5864 5865 5866 5866 5866 5864 5863 5863 5862 5861 5861 5861 5861 5861 5861 5862 5862 5861 5861 5860 5859 5857 5856 5855 5852 5850 5848 5846 5844 5842 5840 5839 5838 5837 5836 5834 5833 5833 5833 5831 5830 5829 5827
5856 5858 5860 5862 5863 5864 5865 5865 5864 5863 5862 5861 5859 5859 5859 5859 5859 5860 5860 5861 5861 5860 5859 5858 5857 5855 5853 5851 5849 5847 5845 5843 5840 5838 5836 5835 5833 5832 5830 5829 5829 5828 5828 5827 5827 5825 5822
5856 5858 5859 5861 5863 5863 5863 5863 5863 5862 5860 5859 5858 5858 5859 5858 5859 5859 5860 5860 5860 5859 5858 5857 5856 5853 5852 5849 5847 5844 5841 5839 5836 5834 5833 5831 5829 5828 5826 5825 5825 5824 5824 5823 5823 5821 5817
5855 5857 5859 5860 5862 5862 5862 5862 5861 5861 5859 5858 5857 5857 5858 5858 5858 5859 5859 5859 5859 5858 5857 5855 5853 5853 5849 5847 5843 5840 5838 5835 5833 5831 5829 5828 5826 5824 5823 5822 5821 5821 5820 5819 5817 5816 5814
5854 5856 5858 5859 5860 5861 5861 5861 5860 5860 5859 5857 5857 5858 5858 5858 5858 5859 5859 5859 5860 5858 5855 5853 5851 5849 5846 5844 5841 5838 5835 5832 5831 5829 5827 5825 5824 5822 5820 5819 5817 5816 5816 5815 5812 5810 5810
5853 5855 5856 5858 5859 5860 5860 5860 5860 5859 5858 5857 5857 5857 5858 5858 5859 5859 5859 5858 5857 5856 5853 5851 5849 5847 5844 5842 5840 5837 5835 5833 5830 5828 5826 5825 5822 5819 5817 5815 5813 5812 5811 5809 5808 5804 5803
5852 5853 5855 5856 5857 5858 5859 5859 5859 5859 5859 5858 5858 5858 5858 5859 5859 5859 5858 5857 5855 5853 5852 5850 5848 5846 5844 5842 5839 5837 5834 5831 5829 5827 5824 5822 5820 5817 5814 5812 5809 5807 5805 5803 5802 5799 5797
5851 5852 5853 5854 5855 5857 5857 5858 5858 5859 5859 5859 5859 5859 5859 5859 5860 5858 5857 5855 5853 5852 5850 5850 5847 5845 5843 5841 5839 5835 5833 5832 5828 5825 5822 5820 5816 5813 5811 5808 5806 5803 5800 5797 5794 5793 5790
5849 5850 5852 5853 5854 5855 5856 5857 5857 5858 5858 5859 5859 5859 5859 5859 5858 5857 5857 5854 5852 5851 5850 5849 5846 5843 5841 5840 5837 5834 5831 5828 5825 5822 5820 5816 5812 5809 5806 5803 5800 5798 5794 5791 5788 5786 5784
5848 5849 5851 5852 5852 5853 5854 5855 5857 5858 5858 5858 5859 5858 5858 5858 5857 5856 5854 5852 5851 5851 5848 5846 5844 5842 5841 5838 5835 5832 5828 5825 5822 5819 5816 5811 5807 5804 5801 5797 5794 5791 5787 5783 5779 5776 5776
5846 5848 5849 5850 5851 5852 5853 5854 5856 5857 5857 5858 5858 5858 5857 5856 5856 5854 5852 5851 5850 5847 5847 5846 5843 5841 5839 5836 5833 5829 5825 5821 5817 5814 5811 5808 5802 5798 5795 5793 5789 5785 5780 5776 5771 5767 5766
5845 5846 5848 5849 5849 5850 5851 5853 5855 5856 5856 5856 5857 5857 5856 5855 5853 5852 5850 5850 5848 5846 5844 5842 5840 5838 5836 5833 5830 5825 5821 5816 5812 5807 5802 5802 5800 5792 5789 5785 5782 5778 5774 5770 5764 5759 5755
5843 5844 5846 5847 5848 5849 5850 5851 5853 5854 5854 5854 5854 5854 5854 5853 5851 5850 5849 5847 5844 5843 5841 5839 5837 5835 5832 5828 5825 5820 5815 5811 5806 5801 5797 5791 5794 5787 5783 5779 5776 5771 5767 5763 5757 5752 5747
5840 5841 5843 5845 5846 5847 5849 5850 5851 5851 5852 5851 5851 5851 5850 5849 5848 5847 5846 5844 5841 5839 5837 5835 5832 5830 5827 5823 5820 5815 5809 5805 5800 5795 5790 5785 5782 5781 5776 5772 5767 5764 5760 5755 5749 5745 5738
5836 5838 5840 5842 5844 5845 5846 5847 5848 5848 5848 5848 5848 5847 5847 5846 5845 5843 5841 5839 5837 5835 5833 5831 5827 5824 5821 5817 5814 5809 5804 5799 5794 5788 5782 5777 5775 5773 5767 5763 5759 5757 5752 5748 5742 5738 5732
5834 5835 5837 5838 5840 5841 5842 5843 5843 5844 5844 5844 5843 5843 5842 5841 5841 5838 5837 5835 5833 5830 5828 5825 5821 5817 5813 5809 5805 5801 5796 5791 5786 5780 5774 5769 5764 5761 5759 5754 5750 5747 5744 5738 5734 5732 5724
5830 5832 5833 5835 5836 5836 5838 5839 5839 5839 5839 5839 5838 5838 5837 5836 5834 5833 5831 5829 5826 5824 5821 5818 5814 5810 5806 5801 5795 5792 5787 5783 5778 5772 5765 5759 5755 5749 5749 5749 5742 5739 5735 5729 5724 5720 5716
5826 5828 5829 5831 5832 5833 5833 5833 5834 5834 5834 5834 5833 5832 5832 5831 5829 5827 5824 5822 5819 5816 5813 5810 5806 5801 5797 5792 5787 5780 5776 5772 5768 5763 5758 5751 5750 5745 5742 5737 5729 5726 5725 5718 5714 5708 5700
5822 5824 5825 5826 5827 5828 5828 5828 5828 5829 5828 5828 5827 5826 5825 5823 5822 5820 5817 5814 5810 5807 5805 5801 5797 5792 5787 5782 5776 5773 5768 5762 5758 5755 5749 5745 5741 5735 5735 5731 5723 5719 5716 5709 5704 5698 5687
5817 5818 5819 5820 5821 5821 5821 5822 5822 5821 5821 5821 5819 5818 5817 5815 5814 5811 5808 5805 5802 5798 5795 5792 5787 5781 5777 5772 5766 5760 5757 5752 5747 5744 5740 5737 5731 5725 5723 5719 5712 5708 5702 5700 5692 5683 5676
5810 5811 5812 5813 5814 5814 5814 5814 5814 5813 5813 5812 5811 5809 5808 5807 5805 5803 5799 5795 5792 5787 5785 5780 5775 5770 5766 5761 5756 5752 5748 5744 5738 5732 5728 5725 5721 5715 5711 5706 5698 5694 5689 5683 5673 5665 5661
5801 5802 5803 5804 5804 5805 5805 5805 5805 5804 5803 5802 5800 5798 5797 5797 5795 5792 5788 5785 5782 5777 5770 5767 5762 5757 5754 5750 5746 5741 5738 5733 5728 5723 5719 5715 5709 5703 5699 5694 5685 5676 5673 5667 5661 5653 5647
5792 5793 5794 5795 5795 5795 5795 5795 5794 5793 5793 5791 5789 5787 5783 5783 5784 5784 5777 5773 5769 5764 5758 5753 5750 5745 5741 5739 5733 5727 5725 5721 5717 5712 5708 5704 5697 5691 5686 5681 5674 5666 5661 5652 5646 5646 5633
5782 5783 5784 5784 5784 5784 5784 5783 5783 5782 5781 5779 5778 5774 5770 5766 5769 5770 5767 5761 5752 5747 5744 5742 5737 5733 5732 5726 5721 5715 5711 5706 5702 5696 5693 5687 5683 5677 5674 5664 5656 5652 5644 5636 5629 5626 5619
5772 5772 5772 5772 5772 5772 5772 5771 5771 5770 5768 5767 5765 5762 5757 5752 5752 5751 5749 5745 5740 5735 5731 5728 5725 5722 5721 5714 5709 5705 5700 5694 5688 5684 5678 5673 5667 5662 5658 5647 5644 5636 5627 5619 5613 5610 5602
5759 5759 5760 5760 5760 5760 5759 5759 5758 5757 5755 5753 5750 5747 5742 5738 5738 5737 5732 5730 5725 5723 5718 5714 5710 5710 5705 5700 5697 5692 5684 5679 5674 5671 5666 5659 5651 5652 5640 5632 5624 5620 5611 5605 5599 5593 5587
5746 5746 5747 5747 5747 5746 5745 5744 5743 5741 5739 5737 5735 5731 5727 5724 5725 5723 5720 5716 5711 5707 5704 5701 5698 5694 5686 5684 5680 5674 5670 5663 5661 5657 5651 5642 5639 5637 5630 5616 5611 5603 5596 5589 5583 5578 5572